Denver, CO

6:34 AM MDT on May 27, 2017 (GMT -0600)
Denver International

Weather History for KDEN - August, 2013

Change the Weather History Date:

Saturday, August 24, 2013

  Actual Average Record
Temperature  
Mean Temperature 74 °F 71 °F  
Max Temperature 88 °F 86 °F 98 °F (2011)
Min Temperature 59 °F 57 °F 40 °F (1910)
Degree Days  
Heating Degree Days 0 0  
Month to date heating degree days 0 0  
Since 1 June heating degree days 29 68  
Since 1 July heating degree days 0 6  
Cooling Degree Days 9 7  
Month to date cooling degree days 215 204  
Year to date cooling degree days 773 648  
Since 1 June cooling degree days 731 626  
Growing Degree Days 24 (Base 50)    
Moisture  
Dew Point 51 °F    
Average Humidity 50    
Maximum Humidity 72    
Minimum Humidity 27    
Precipitation  
Precipitation T in 0.05 in 1.98 in (1992)
Month to date precipitation 2.72 1.42  
Year to date precipitation 10.69 11.09  
Snow  
Snow 0.00 in - - ()
Month to date snowfall 0  
Since 1 June snowfall 0  
Since 1 July snowfall 0  
Snow Depth 0.00 in    
Sea Level Pressure  
Sea Level Pressure 29.90 in    
Wind  
Wind Speed 8 mph (SW)    
Max Wind Speed 25 mph    
Max Gust Speed 30 mph    
Visibility 10 miles    
Events Rain , Thunderstorm    
T = Trace of Precipitation, MM = Missing Value Source: NWS Daily Summary

Daily Weather History Graph

Daily Weather History Graph

Search for Another Location

Airport or City:

Trip Planner

Search our weather history database for the weather conditions in past years. The results will help you decide how hot, cold, wet, or windy it might be!

Date:

Astronomy

Aug. 24, 2013 Rise Set
Actual Time 6:19 AM MDT 7:41 PM MDT
Civil Twilight 5:51 AM MDT 8:09 PM MDT
Nautical Twilight 5:17 AM MDT 8:43 PM MDT
Astronomical Twilight 4:41 AM MDT 9:19 PM MDT
Moon 9:37 PM MDT (8/24) 10:21 AM MDT (8/24)
Length of Visible Light 14h 18m
Length of Day
13h 22m
Waning Gibbous, 84% of the Moon is Illuminated
Aug 24
Waning Gibbous
Aug 28
Last Quarter
Sep 5
New
Sep 12
First Quarter
Sep 19
Full

Hourly Weather History & Observations

Time (MDT) Temp. Dew Point Humidity Pressure Visibility Wind Dir Wind Speed Gust Speed Precip Events Conditions
12:53 AM 66.0 °F 53.1 °F 63% 29.83 in 10.0 mi Variable 3.5 mph - N/A   Scattered Clouds
1:53 AM 62.1 °F 53.1 °F 72% 29.84 in 10.0 mi South 5.8 mph - N/A   Scattered Clouds
2:53 AM 64.0 °F 52.0 °F 65% 29.82 in 10.0 mi SE 4.6 mph - N/A   Partly Cloudy
3:53 AM 63.0 °F 53.1 °F 70% 29.83 in 10.0 mi SW 8.1 mph - N/A   Partly Cloudy
4:53 AM 62.1 °F 52.0 °F 70% 29.83 in 10.0 mi SW 9.2 mph - N/A   Partly Cloudy
5:53 AM 61.0 °F 51.1 °F 70% 29.84 in 10.0 mi SSW 9.2 mph - N/A   Partly Cloudy
6:53 AM 63.0 °F 50.0 °F 63% 29.87 in 10.0 mi SW 8.1 mph - N/A   Scattered Clouds
7:53 AM 66.0 °F 51.1 °F 59% 29.88 in 10.0 mi SW 10.4 mph - N/A   Scattered Clouds
8:53 AM 71.1 °F 52.0 °F 51% 29.88 in 10.0 mi SW 8.1 mph - N/A   Scattered Clouds
9:53 AM 77.0 °F 50.0 °F 39% 29.87 in 10.0 mi Calm Calm - N/A   Scattered Clouds
10:53 AM 81.0 °F 50.0 °F 34% 29.87 in 10.0 mi Calm Calm - N/A   Scattered Clouds
11:53 AM 82.9 °F 48.9 °F 31% 29.86 in 10.0 mi Calm Calm - N/A   Scattered Clouds
12:53 PM 84.9 °F 46.9 °F 27% 29.85 in 10.0 mi Calm Calm - N/A   Scattered Clouds
1:53 PM 84.9 °F 46.9 °F 27% 29.85 in 10.0 mi Calm Calm - N/A   Mostly Cloudy
2:08 PM 87.8 °F 48.2 °F 25% 30.09 in 10.0 mi ENE 4.6 mph - N/A Thunderstorm Thunderstorm
2:42 PM 84.2 °F 48.2 °F 29% 30.10 in 10.0 mi ESE 8.1 mph - N/A   Mostly Cloudy
2:53 PM 80.1 °F 52.0 °F 38% 29.86 in 10.0 mi SE 9.2 mph - 0.00 in Rain Light Rain
3:53 PM 82.9 °F 48.9 °F 31% 29.86 in 10.0 mi North 5.8 mph - 0.00 in   Mostly Cloudy
4:15 PM 80.6 °F 51.8 °F 37% 30.10 in 10.0 mi WNW 12.7 mph - 0.00 in Rain Light Rain
4:20 PM 82.4 °F 51.8 °F 35% 30.10 in 10.0 mi NW 12.7 mph - 0.00 in Rain , Thunderstorm Light Thunderstorms and Rain
4:53 PM 80.1 °F 50.0 °F 35% 29.87 in 10.0 mi NW 12.7 mph - 0.00 in   Mostly Cloudy
5:53 PM 79.0 °F 48.0 °F 34% 29.87 in 10.0 mi West 9.2 mph - N/A   Mostly Cloudy
6:53 PM 79.0 °F 50.0 °F 36% 29.85 in 10.0 mi West 6.9 mph - N/A   Mostly Cloudy
7:53 PM 75.0 °F 55.0 °F 50% 29.87 in 10.0 mi SW 17.3 mph - N/A   Mostly Cloudy
8:53 PM 73.9 °F 55.0 °F 52% 29.89 in 10.0 mi WSW 16.1 mph - 0.00 in   Mostly Cloudy
9:53 PM 72.0 °F 53.1 °F 51% 29.89 in 10.0 mi West 13.8 mph - 0.00 in   Mostly Cloudy
10:53 PM 70.0 °F 53.1 °F 55% 29.90 in 10.0 mi WSW 10.4 mph - N/A   Mostly Cloudy
11:40 PM 69.8 °F 51.8 °F 53% 30.17 in 10.0 mi SW 15.0 mph 19.6 mph N/A Thunderstorm Thunderstorm
11:53 PM 70.0 °F 55.0 °F 59% 29.92 in 10.0 mi SSW 16.1 mph - N/A Thunderstorm Thunderstorm